TimeAKST,TemperatureF,Dew PointF,Humidity,Sea Level PressureIn,VisibilityMPH,Wind Direction,Wind SpeedMPH,Gust SpeedMPH,PrecipitationIn,Events,Conditions,WindDirDegrees,DateUTC
12:53 AM,-22.0,-25.1,86,30.45,7.0,NW,6.9,-,N/A,,Partly Cloudy,320,2013-12-13 09:53:00
1:22 AM,-22.0,-26.0,82,30.43,7.0,NNW,6.9,-,N/A,,Mostly Cloudy,330,2013-12-13 10:22:00
1:37 AM,-22.0,-26.0,82,30.42,7.0,NNW,6.9,-,N/A,,Overcast,330,2013-12-13 10:37:00
1:53 AM,-22.0,-26.0,82,30.42,8.0,NNW,4.6,-,N/A,,Mostly Cloudy,330,2013-12-13 10:53:00
2:53 AM,-23.1,-27.0,82,30.39,8.0,Calm,Calm,-,N/A,,Scattered Clouds,0,2013-12-13 11:53:00
3:26 AM,-22.0,-26.0,82,30.37,8.0,NW,5.8,-,N/A,,Scattered Clouds,310,2013-12-13 12:26:00
3:53 AM,-20.0,-24.0,82,30.36,7.0,NW,4.6,-,N/A,,Overcast,320,2013-12-13 12:53:00
4:09 AM,-18.9,-22.0,86,30.35,7.0,Calm,Calm,-,N/A,,Overcast,0,2013-12-13 13:09:00
4:53 AM,-22.0,-25.1,86,30.35,5.0,South,4.6,-,N/A,,Overcast,190,2013-12-13 13:53:00
5:53 AM,-20.9,-25.1,81,30.32,7.0,SW,4.6,-,N/A,,Overcast,230,2013-12-13 14:53:00
6:53 AM,-16.1,-18.9,87,30.30,6.0,WNW,6.9,-,N/A,,Overcast,290,2013-12-13 15:53:00
7:53 AM,-13.0,-17.0,82,30.27,8.0,NW,6.9,-,N/A,,Overcast,310,2013-12-13 16:53:00
8:53 AM,-11.9,-16.1,82,30.25,5.0,WNW,8.1,-,N/A,,Overcast,300,2013-12-13 17:53:00
9:53 AM,-11.9,-16.1,82,30.23,6.0,WNW,8.1,-,N/A,,Overcast,290,2013-12-13 18:53:00
10:53 AM,-14.1,-17.0,87,30.22,7.0,West,10.4,-,N/A,,Overcast,270,2013-12-13 19:53:00
11:53 AM,-15.0,-18.0,86,30.20,7.0,WNW,10.4,-,N/A,,Scattered Clouds,290,2013-12-13 20:53:00
12:07 PM,-14.1,-18.0,82,30.19,4.0,WNW,11.5,-,N/A,,Partly Cloudy,290,2013-12-13 21:07:00
12:38 PM,-14.1,-17.0,87,30.19,4.0,WNW,10.4,-,N/A,,Mostly Cloudy,290,2013-12-13 21:38:00
12:53 PM,-14.1,-17.0,87,30.19,3.0,WNW,10.4,-,N/A,,Overcast,290,2013-12-13 21:53:00
1:22 PM,-14.1,-17.0,87,30.17,2.5,WNW,10.4,-,N/A,,Overcast,290,2013-12-13 22:22:00
1:45 PM,-15.0,-18.0,86,30.16,4.0,WNW,11.5,-,N/A,,Overcast,300,2013-12-13 22:45:00
1:53 PM,-15.0,-18.0,86,30.16,3.0,WNW,10.4,-,N/A,,Overcast,300,2013-12-13 22:53:00
2:29 PM,-14.1,-18.0,82,30.14,1.8,WNW,10.4,-,N/A,,Overcast,300,2013-12-13 23:29:00
2:53 PM,-14.1,-18.0,82,30.13,1.8,WNW,10.4,-,N/A,,Overcast,300,2013-12-13 23:53:00
3:02 PM,-14.1,-18.0,82,30.12,2.0,WNW,10.4,-,N/A,,Overcast,300,2013-12-14 00:02:00
3:41 PM,-14.1,-18.0,82,30.10,3.0,WNW,12.7,-,N/A,,Overcast,300,2013-12-14 00:41:00
4:14 PM,-14.1,-18.0,82,30.08,2.5,WNW,12.7,-,N/A,,Mist,300,2013-12-14 01:14:00
4:25 PM,-14.1,-18.0,82,30.08,2.0,WNW,13.8,-,N/A,,Overcast,290,2013-12-14 01:25:00
4:48 PM,-14.8,-18.4,84,30.07,3.0,WNW,12.7,-,N/A,,Overcast,290,2013-12-14 01:48:00
4:53 PM,-14.1,-18.0,82,30.08,3.0,WNW,13.8,-,N/A,,Overcast,290,2013-12-14 01:53:00
5:53 PM,-14.1,-18.0,82,30.05,3.0,WNW,12.7,-,N/A,,Overcast,300,2013-12-14 02:53:00
6:04 PM,-14.1,-18.0,82,30.04,2.5,WNW,12.7,-,N/A,,Overcast,300,2013-12-14 03:04:00
6:12 PM,-14.1,-18.0,82,30.03,3.0,WNW,13.8,-,N/A,,Overcast,300,2013-12-14 03:12:00
6:21 PM,-15.0,-18.0,86,30.03,2.0,WNW,13.8,-,N/A,,Overcast,300,2013-12-14 03:21:00
6:37 PM,-15.0,-18.0,86,30.03,3.0,WNW,13.8,-,N/A,,Overcast,300,2013-12-14 03:37:00
6:53 PM,-15.0,-18.0,86,30.03,3.0,WNW,12.7,-,N/A,,Overcast,300,2013-12-14 03:53:00
7:23 PM,-14.1,-18.0,82,30.01,2.5,WNW,12.7,-,N/A,,Overcast,290,2013-12-14 04:23:00
7:40 PM,-14.1,-18.0,82,30.01,3.0,WNW,11.5,-,N/A,,Overcast,290,2013-12-14 04:40:00
7:53 PM,-14.1,-18.0,82,30.01,3.0,WNW,11.5,-,N/A,,Overcast,290,2013-12-14 04:53:00
8:01 PM,-14.1,-18.0,82,30.00,2.5,WNW,10.4,-,N/A,,Overcast,290,2013-12-14 05:01:00
8:19 PM,-14.1,-17.0,87,29.99,1.8,WNW,10.4,-,N/A,,Overcast,290,2013-12-14 05:19:00
8:53 PM,-14.1,-18.0,82,29.98,1.8,WNW,11.5,-,N/A,,Overcast,290,2013-12-14 05:53:00
9:00 PM,-14.1,-18.0,82,29.97,2.0,WNW,10.4,-,N/A,,Overcast,290,2013-12-14 06:00:00
9:53 PM,-15.0,-18.0,86,29.97,1.8,WNW,8.1,-,N/A,,Overcast,290,2013-12-14 06:53:00
10:37 PM,-16.1,-18.9,87,29.95,2.0,West,6.9,-,N/A,,Overcast,280,2013-12-14 07:37:00
10:53 PM,-18.0,-20.9,87,29.95,2.5,WSW,5.8,-,N/A,,Overcast,250,2013-12-14 07:53:00
11:05 PM,-18.0,-22.0,82,29.93,4.0,West,8.1,-,N/A,,Overcast,260,2013-12-14 08:05:00
11:38 PM,-18.9,-23.1,81,29.92,4.0,West,8.1,-,N/A,,Overcast,270,2013-12-14 08:38:00
11:53 PM,-18.9,-23.1,81,29.93,6.0,West,6.9,-,N/A,,Overcast,280,2013-12-14 08:53:00